星链-33704 (STARLINK-33704)

导读

STARLINK-33704是美国SpaceX公司于2025年4月25日发射的Starlink星链星座卫星,运行在近550公里的低地球轨道,属于SpaceX二代Starlink组网卫星,配备Ku和Ka工作频段,大概率搭载星间激光链路。它旨在为全球偏远地区、海上、灾害现场等地面通信覆盖不足区域提供低延迟高速卫星互联网接入,助力星链实现全球高速网络覆盖目标。

Basic Information
目录编号:
63650
目录名称:
STARLINK-33704
国际标识:
2025-083S
轨道中心:
EARTH
卫星名称:
星链-33704
卫星全名:
星链-33704 (STARLINK-33704)
卫星状态:
在轨 (已飞行415 天)
发射日期:
2025-04-25 UTC
国别 :
美国 (US)
星等 :
--
Orbit Information
数据来源 国际轨道数据 AOE轨道数据
星历时间 2026-06-13T15:49:01+0800
23小时前
查看轨道信息
2026-06-09T05:00:00+0800
5天前
查看轨道信息
半长轴 6861.113km 6861.212km
偏心率 0.0004481 0.00014
轨道倾角 43.004° 42.999°
近地点辐角 278.087° 276.273°
升交点赤经 185.065° 210.200°
平近点角 81.948° 59.459°
近地点 479.901km 482.114km
远地点 486.051km 484.036km
周期 94.265分钟 94.267分钟
每日圈数 15.276047 15.275714
Detailed Information
固有亮度:
5
最大亮度:
2.5
卫星平台:
Starlink V1.0
覆盖范围:
全球
运营商:
太空探索技术公司
运营商所在国:
美国
制造商(研发单位):
太空探索技术公司
制造商所在国:
美国
使用方式:
暂无
Satellite Introduction
Starlink 计划是 SpaceX 推出的全球卫星互联网项目,通过发射低轨道卫星,为全球尤其是偏远地区提供高速、低延迟的互联网服务。自 2019 年起,Starlink 已部署数千颗卫星,旨在缩小全球数字鸿沟,推动互联网普及。该项目还为军事、航空等行业提供通信支持,带来广泛经济效益。
2D Orbit Map
3D Orbit Map
Orbit Altitude Analysis Chart
Orbit Inclination Analysis Chart
Orbit Comprehensive Analysis Chart
View Comprehensive Chart